www.pogodaiklimat.ru

Погода и климат >> Архив погоды >> Украина >> Любешов


ПОГОДА в Любешове

  • Прогноз погоды в Любешове
  • Монитор погоды в Любешове
  • Климат города

АРХИВ ПОГОДЫ в Любешове

Время (UTC), дата Ветер
(напр.,м/с)
 
Видим.   Явления Облачность Т
(С)
Тd
(С)
f
(%)
Тe
(С)
Тes
(С)
Комфортность P
(гПа)
Po
(гПа)
Тmin
(С)
Tmax
(С)
R
(мм)
R24
(мм)
S
(см)
15 10.07 В 2 10 км 3 балла +26.1 +12.5 43 +28 +31 жарко 1014.0 996.6
18 10.07 СВ 1 10 км 3 балла +23.2 +15.0 60 +27 +27 душно 1014.0 996.5 +27.9
21 10.07 СВ 2 10 км 3 балла +18.1 +14.8 81 +19 +19 1015.0 997.1
00 11.07 штиль 0 10 км ясно +14.9 +13.9 94 +15 +15 1015.0 996.9
03 11.07 штиль 0 10 км 3 балла +13.8 +13.3 97 +13 +13 1015.0 996.9
06 11.07 штиль 0 10 км 4/4 600 м
[Sc]
+20.9 +16.5 76 +24 +29 комфорт 1014.4 1014.0 +13.7
09 11.07 СВ 2 10 км 3 балла +25.7 +15.4 53 +29 +39 душно 1014.0 996.6
12 11.07 СВ 2 10 км 6/4 600 м
[Cb calv Ac cuf Ci fib]
+27.4 +15.7 49 +30 +38 жарко 1012.6 1013.0
15 11.07 Ю 1 10 км 10 баллов +26.6 +16.8 55 +30 +30 душно 1012.0 994.7
18 11.07 В 3 10 км 6/6 800 м
[Sc]
+21.9 +17.2 75 +26 +26 душно 1013.4 1013.0 +28.2 0.0
21 11.07 штиль 0 10 км ясно +17.8 +16.5 92 +18 +18 1014.0 996.1
00 12.07 ЮВ 1 10 км ясно +17.0 +15.6 91 +18 +18 1013.8 1014.0
03 12.07 В 1 10 км 6 баллов +16.0 +13.3 84 +17 +17 1014.0 996.0
06 12.07 Ю 2 10 км 9/9 800 м
[Sc]
+21.3 +16.2 73 +25 +25 комфорт 1014.0 1014.0 +16.0
09 12.07 штиль 0 4000 м 10 баллов +20.2 +17.6 85 +23 +23 комфорт 1014.0 996.3
12 12.07 ЮВ 1 10 км в посл. час ливневой дождь 8/6 750 м
[Sc Ac und]
+22.4 +18.3 78 +28 +32 душно 1013.0 1013.0 0.9
15 12.07 Ю 3 10 км 10 баллов +24.7 +16.4 60 +28 +28 душно 1012.0 994.6
18 12.07 штиль 0 10 км слабый ливневой дождь 9/8 630 м
[Cb calv Ac und]
+20.8 +17.2 80 +24 +24 комфорт 1012.2 1012.0 +25.9 0.9
21 12.07 Ю 1 10 км 10 баллов +18.7 +17.5 93 +21 +21 комфорт 1012.0 994.2
00 13.07 СЗ 1 4000 м дымка {ливн. осадки} 4/4 600 м
[Cb calv]
+17.6 +16.6 94 +19 +19 1011.6 1012.0 0.3
03 13.07 штиль 0 10 км дымка 10 баллов +16.2 +15.6 96 +16 +16 1012.0 994.1
06 13.07 СЗ 1 10 км 6/0
[Ac lent Ci sp]
+18.4 +16.4 88 +20 +24 1011.4 1011.0 +15.9 0.3
09 13.07 З 5 10 км 10 баллов +19.2 +15.5 79 +20 +20 1012.0 994.3
12 13.07 З 3 10 км гроза без осадков 9/9 600 м
[Cb calv]
+20.0 +14.9 72 +23 +24 комфорт 1011.8 1012.0
15 13.07 ЮЗ 2 10 км 10 баллов +21.4 +14.3 64 +24 +24 комфорт 1011.0 993.4
18 13.07 ЮЗ 1 10 км {гроза, ливн. осадки} 4/3 600 м
[Sc Ci fib]
+19.4 +14.4 73 +22 +22 комфорт 1010.7 1011.0 +21.9 0.0
21 13.07 ЮЗ 1 10 км ясно +14.8 +13.0 89 +15 +15 1012.0 994.0
00 14.07 штиль 0 10 км ясно +13.0 +11.9 93 +12 +12 1010.9 1011.0
03 14.07 ЮЗ 2 10 км 6 баллов +12.0 +11.2 95 +11 +11 1011.0 992.8
06 14.07 З 1 10 км 10/10 800 м
[Sc]
+14.4 +13.7 96 +15 +15 1010.1 1010.0 +12.0
09 14.07 З 3 10 км 10 баллов +19.8 +15.0 74 +22 +22 комфорт 1010.0 1003.8
12 14.07 СЗ 2 10 км 9/9 660 м
[Cb cap]
+22.3 +15.1 64 +26 +27 жарко 1008.5 1009.0
15 14.07 штиль 0 4000 м 10 баллов +18.5 +17.2 92 +19 +19 1008.0 990.3
18 14.07 ЮЗ 1 10 км гроза без осадков {ливн. осадки} 10/10 540 м
[Cb cap]
+17.0 +15.6 91 +18 +18 1008.3 1008.0 +22.9 16
21 14.07 штиль 0 10 км 3 балла +15.0 +14.0 94 +15 +15 1009.0 991.0
00 15.07 штиль 0 10 км {гроза} ясно +14.0 +13.1 94 +14 +14 1008.2 1008.0
03 15.07 СЗ 1 4000 м дымка 3 балла +14.2 +13.6 96 +14 +15 1008.0 990.0
06 15.07 СЗ 2 4000 м дымка {туман} 10/10 480 м
[Cb cap]
+16.5 +16.0 97 +17 +17 1008.6 1009.0 +14.0
09 15.07 С 1 10 км 10 баллов +19.6 +16.2 81 +23 +23 комфорт 1008.0 990.4
12 15.07 З 3 10 км в посл. час гроза 8/8 570 м
[Cb calv]
+20.6 +17.2 81 +24 +27 комфорт 1007.6 1008.0
15 15.07 З 2 10 км 10 баллов +20.7 +17.5 82 +25 +25 комфорт 1008.0 1001.8
18 15.07 штиль 0 10 км {гроза, ливн. осадки} 8/8 660 м
[Cb calv]
+16.0 +15.3 96 +16 +16 1008.2 1008.0 +22.9 2
21 15.07 З 2 10 км 3 балла +15.3 +14.8 97 +15 +15 1009.0 991.1
00 16.07 СЗ 1 10 км зарница 9/9 630 м
[Cb calv]
+14.9 +14.4 97 +15 +15 1008.1 1008.0
03 16.07 штиль 0 10 км 10 баллов +15.0 +14.5 97 +15 +15 1008.0 1002.1
06 16.07 штиль 0 10 км 9/9 600 м
[Cb calv]
+17.6 +16.3 92 +18 +18 1007.5 1008.0 +14.9
09 16.07 штиль 0 10 км 10 баллов +20.3 +16.9 81 +23 +23 комфорт 1007.0 989.4
12 16.07 СВ 2 10 км {ливн. осадки} 8/8 660 м
[Cb calv]
+23.4 +17.3 69 +29 +32 душно 1006.7 1007.0
15 16.07 СВ 2 10 км 10 баллов +24.9 +17.4 63 +29 +29 душно 1005.0 987.7
18 16.07 штиль 0 10 км 10 баллов +21.7 +18.5 82 +26 +26 душно 1006.0 988.5 +25.0
21 16.07 штиль 0 10 км 6 баллов +18.4 +16.0 86 +19 +19 1005.0 987.3
00 17.07 штиль 0 10 км 10 баллов +17.2 +15.2 88 +17 +17 1005.0 987.3
03 17.07 З 1 10 км 10 баллов +17.6 +17.1 97 +19 +19 1004.0 986.3
06 17.07 СЗ 2 10 км 10 баллов +18.4 +17.4 94 +20 +20 1003.0 985.4 +17.2
09 17.07 З 2 10 км 10 баллов +18.6 +17.9 96 +20 +20 1003.0 985.4
12 17.07 штиль 0 10 км 10 баллов +20.6 +18.7 89 +24 +24 комфорт 1003.0 985.5 2

 

Местоположение метеостанции Любешов (Волынская область, Украина): широта 51.67 долгота 25.27 высота над уровнем моря 152 м.

В архиве по умолчанию представлена погода в Любешове за последнюю неделю. Архивные данные за месяц целиком и за предыдущие месяцы, начиная с января 2011 года, Вы можете получить, выбрав интересующий диапазон дат из раскрывающегося списка и нажав кнопку "Ввод!".


*Определитесь, кто Вы:
робот инопланетянин человек

Внимание! Время в таблицах - всемирное. Для получения местного времени необходимо прибавить поправку, которая в Любешове равна 2 ч.

Смотрите также архив погоды в соседних городах и на ближайших метеорологических станциях:

Погода в Маневичах (Волынская область, Украина) (47 км)
Погода в Свитязи (Волынская область, Украина) (54 км)
Погода в Дрогичине (Брестская область, Беларусь) (60 км)
Погода в Ковеле (Волынская область, Украина) (65 км)
Погода в Пинске (Брестская область, Беларусь) (74 км)
Погода в Сарнах (Ровенская область, Украина) (103 км)
Погода в Луцке (Волынская область, Украина) (109 км)
Погода в Пружанах (Брестская область, Беларусь) (111 км)
Погода в Владимире-Волынском (Волынская область, Украина) (114 км)
Погода в Ивацевичах (Брестская область, Беларусь) (115 км)

Пояснения к столбцам:

Ветер - указаны скорость ветра в м/с - средняя за 10 мин, порывы в срок и между сроками (в фигурных скобках) и направление, откуда дует ветер: С - северный, СВ - северо-восточный, В - восточный, ЮВ - юго-восточный, Ю - южный, ЮЗ - юго-западный, З - западный, СЗ - северо-западный.
Видимость - горизонтальная дальность видимости в метрах или километрах. При видимости от 1 до 10 км при отсутствии осадков обычно наблюдается дымка, при ухудшении видимости до 1 км и менее - туман. В сухую погоду видимость может ухудшаться дымом, пылью или мглою.
Явления - указаны атмосферные явления, наблюдавшиеся в срок или в последний час перед сроком; фигурными скобками обозначены явления, наблюдавшиеся между сроками (за 1-3 часа до срока); квадратными скобками обозначены град или гололедные отложения с указанием их диаметра в мм.
Облачность - указаны через наклонную черту общая и нижняя облачность в баллах и высота нижней границы облаков в метрах; квадратными скобками обозначены формы облаков: Ci - перистые, Cs - перисто-слоистые, Cc - перисто-кучевые, Ac - высококучевые, As - высокослоистые, Sc - слоисто-кучевые, Ns - слоисто-дождевые, Cu - кучевые, Cb - кучево-дождевые. Подробнее классификацию облаков см. в Атласе облаков (PDF).
T - Температура воздуха - температура, измеренная на высоте 2 м над землей.
Td - Температура точки росы - температура, при понижении до которой содержащийся в воздухе водяной пар достигнет насыщения.
f - Относительная влажность воздуха - влажноcть воздуха, измеренная на высоте 2 м над землей.
Te - Эффективная температура - температура, которую ощущает одетый по сезону человек в тени. Характеристика душности погоды. При расчете учитывается влияние влажности воздуха и скорости ветра на теплоощущения человека.
Tes - Эффективная температура на солнце - температура, которую ощущает человек, с поправкой на солнечный нагрев. Характеристика знойности погоды. Зависит от высоты солнца над горизонтом, облачности и скорости ветра. Ночью, в пасмурную погоду, а также при ветре 12 м/с и более поправка равна нулю.
P - Атмосферное давление - приведенное к уровню моря атмосферное давление.
Po - Атмосферное давление - измеренное на уровне метеостанции атмосферное давление.
Tmin - Минимальная температура - минимум температуры воздуха на высоте 2 м над землей.
Tmax - Максимальная температура - максимум температуры воздуха на высоте 2 м над землей.
R - Количество осадков - Количество выпавших осадков за период времени, мм. При наведении курсора мыши на число - период времени, за который выпало указанное количество осадков.
R24 - Количество осадков - Количество выпавших осадков за 24 часа, мм.
S - Снежный покров - Высота снежного покрова, см. При наведении курсора мыши на число - состояние снежного покрова и степень покрытия местности в баллах.